Temperature
3 4 4 4 4 5 4 5 5 5 4 4 4 4 4 5 4 4 3 3 3 3 3 3 3 3 3 4 4 4 5 5 5 5 5 5 5 5 5 5 5 5 5 5
2 4 4 4 4 4 4 5 4 4 3 4 4 4 4 4 3 3 3 2 2 2 2 2 2 2 3 3 3 3 4 4 4 4 4 4 4 4 4 4 4 4 4 4
2 3 3 2 2 3 3 4 4 3 3 3 3 3 3 3 2 2 2 2 2 2 1 1 1 2 2 2 2 3 3 3 3 4 4 4 4 4 4 4 4 4 4 4
1 2 1 1 2 3 3 3 3 3 2 2 2 3 2 2 2 2 1 1 1 1 1 1 1 1 1 2 2 2 2 3 3 3 3 3 3 3 3 3 3 3 3 3
1 1 1 1 1 1 1 1 1 1 1 1 1 2 1 1 1 1 1 1 1 1 1 1 1 1 1 1 1 2 2 2 2 2 2 2 2 2 2 2 2 2 2 2
0 0 0 -0 0 0 1 -0 0 1 0 0 1 -0 -0 -0 0 0 0 0 0 0 0 0 0 0 1 1 1 1 1 1 1 1 2 2 2 2 2 2 2 2 2 2
-1 -1 -1 -2 -1 0 -0 -1 -0 0 0 0 -0 -1 -1 -1 -1 -1 -0 -0 -0 -0 -0 -0 -0 -0 0 0 0 0 1 1 1 1 1 1 1 1 1 1 1 1 1 1
-1 -1 -2 -2 -2 -2 -2 -1 -1 -1 -1 -1 -1 -1 -1 -1 -1 -1 -1 -1 -1 -1 -1 -1 -1 -0 -0 -0 -0 -0 0 0 0 0 0 0 0 0 0 0 1 1 0 0
-3 -3 -2 -2 -2 -2 -2 -2 -2 -2 -2 -2 -2 -2 -2 -2 -2 -2 -2 -2 -2 -1 -1 -1 -1 -1 -1 -1 -1 -1 -1 -0 -0 -0 -0 -1 -0 -0 -0 -0 -0 -0 -0 -0
-3 -3 -2 -2 -3 -3 -3 -3 -2 -3 -3 -3 -3 -3 -3 -3 -2 -2 -2 -2 -2 -2 -2 -2 -2 -2 -2 -2 -1 -1 -1 -1 -1 -1 -1 -1 -1 -1 -1 -1 -1 -1 -1 -1
-4 -3 -3 -3 -3 -3 -3 -3 -3 -3 -3 -3 -3 -3 -3 -3 -3 -3 -3 -3 -3 -3 -3 -3 -3 -3 -2 -2 -2 -2 -2 -2 -2 -2 -2 -2 -2 -2 -2 -2 -2 -2 -2 -2
-4 -4 -4 -4 -4 -4 -4 -4 -4 -4 -4 -4 -4 -4 -4 -4 -3 -3 -3 -3 -3 -3 -3 -3 -3 -3 -3 -3 -3 -3 -3 -3 -3 -3 -3 -3 -2 -2 -2 -2 -2 -2 -2 -2
-4 -4 -4 -4 -4 -4 -4 -4 -4 -4 -4 -4 -4 -4 -4 -4 -4 -4 -4 -4 -4 -4 -4 -4 -4 -3 -3 -3 -3 -3 -3 -3 -3 -3 -3 -3 -3 -3 -3 -3 -3 -3 -3 -3
-5 -5 -5 -5 -5 -5 -5 -5 -5 -5 -5 -4 -4 -4 -4 -4 -4 -4 -4 -4 -4 -4 -4 -4 -4 -4 -4 -4 -4 -4 -4 -4 -4 -4 -4 -4 -4 -4 -4 -4 -3 -3 -3 -3
-5 -5 -5 -5 -5 -5 -5 -5 -5 -5 -5 -5 -5 -5 -5 -5 -5 -4 -4 -4 -5 -5 -5 -5 -5 -4 -4 -4 -4 -4 -4 -4 -4 -4 -4 -4 -4 -4 -4 -4 -4 -4 -4 -4
-6 -6 -6 -6 -6 -6 -6 -6 -6 -6 -5 -5 -5 -5 -5 -5 -5 -5 -5 -5 -5 -5 -5 -5 -5 -5 -5 -5 -5 -5 -5 -5 -5 -5 -5 -4 -4 -4 -4 -4 -4 -4 -4 -4
-6 -7 -6 -6 -6 -6 -6 -6 -6 -6 -6 -6 -6 -6 -6 -5 -5 -5 -5 -5 -6 -6 -6 -6 -6 -5 -5 -5 -5 -5 -5 -5 -5 -5 -5 -5 -5 -5 -5 -5 -5 -5 -5 -5
-6 -7 -7 -7 -7 -7 -6 -7 -7 -7 -6 -6 -6 -6 -6 -6 -6 -6 -6 -6 -6 -6 -6 -6 -6 -6 -6 -6 -6 -6 -5 -5 -5 -5 -5 -5 -5 -5 -5 -5 -5 -5 -5 -5
-7 -7 -7 -7 -7 -7 -7 -7 -7 -7 -7 -7 -7 -7 -7 -6 -6 -7 -7 -6 -6 -6 -6 -6 -6 -6 -6 -6 -6 -6 -6 -6 -6 -6 -6 -6 -6 -6 -6 -6 -6 -6 -6 -6
-7 -7 -7 -7 -7 -7 -7 -7 -7 -7 -7 -7 -7 -7 -7 -7 -7 -7 -7 -7 -7 -7 -7 -7 -7 -6 -6 -6 -6 -6 -6 -6 -6 -6 -6 -6 -6 -6 -6 -6 -7 -7 -6 -6
-7 -7 -7 -7 -7 -7 -7 -7 -7 -7 -7 -7 -7 -7 -7 -7 -7 -7 -7 -7 -7 -7 -7 -7 -7 -7 -7 -7 -7 -7 -7 -7 -7 -7 -7 -7 -7 -7 -7 -7 -7 -7 -7 -7
-7 -7 -7 -7 -7 -7 -7 -8 -8 -8 -7 -7 -7 -8 -8 -8 -8 -8 -8 -8 -8 -8 -8 -8 -8 -8 -8 -8 -8 -7 -7 -7 -7 -7 -7 -7 -7 -7 -7 -7 -7 -7 -7 -7
-7 -7 -7 -7 -7 -8 -8 -8 -8 -8 -8 -8 -8 -8 -8 -8 -8 -8 -8 -8 -8 -8 -8 -8 -8 -8 -8 -8 -8 -8 -7 -7 -8 -8 -8 -8 -8 -8 -8 -8 -7 -7 -7 -7
-7 -7 -8 -8 -8 -8 -8 -8 -8 -8 -8 -8 -8 -8 -8 -8 -8 -8 -8 -8 -8 -8 -8 -8 -8 -8 -8 -8 -8 -8 -8 -8 -8 -8 -8 -8 -8 -8 -8 -8 -8 -7 -7 -7
-8 -8 -8 -8 -8 -8 -8 -8 -8 -8 -9 -8 -8 -9 -9 -9 -9 -9 -9 -9 -9 -9 -9 -9 -9 -9 -9 -8 -8 -8 -8 -8 -8 -8 -8 -8 -8 -8 -8 -8 -8 -8 -8 -8
-8 -8 -8 -8 -8 -8 -9 -9 -9 -9 -9 -9 -9 -9 -9 -9 -9 -9 -9 -9 -9 -9 -9 -9 -9 -9 -9 -9 -9 -8 -8 -8 -8 -8 -8 -8 -8 -8 -8 -8 -8 -8 -8 -8
-8 -8 -8 -9 -9 -9 -9 -9 -9 -9 -9 -9 -9 -9 -9 -9 -9 -9 -9 -9 -9 -9 -9 -9 -9 -9 -9 -9 -9 -9 -9 -8 -8 -8 -8 -8 -8 -8 -8 -8 -8 -8 -8 -8
Wind_Speed
2 1 3 3 5 5 6 5 4 3 4 5 4 3 4 5 5 5 5 4 4 4 4 4 4 4 4 4 4 4 4 4 3 3 3 3 3 2 2 2 1 1 1 0
1 2 3 3 4 5 5 4 3 2 2 1 2 3 3 3 4 4 4 4 4 4 4 3 3 3 4 4 3 3 4 4 3 3 3 2 2 2 2 1 1 1 1 1
1 0 0 2 4 5 4 3 4 5 4 2 2 3 3 2 3 4 4 3 3 3 3 3 3 3 3 3 3 3 4 4 3 3 2 2 2 2 2 1 1 1 0 1
1 0 3 1 2 1 2 2 1 1 2 2 2 2 3 2 2 2 3 3 3 3 3 2 2 3 3 4 3 3 4 4 3 3 2 2 1 1 0 1 1 1 1 1
1 1 2 1 3 3 1 1 2 1 2 2 3 3 2 2 3 3 3 3 2 3 3 3 3 3 4 4 3 4 3 3 2 2 2 1 1 1 1 0 1 1 1 1
1 1 2 1 4 5 1 1 3 2 2 2 1 1 1 2 4 4 3 3 3 3 4 3 3 3 4 4 4 3 2 2 2 2 1 1 1 1 1 1 1 1 1 1
2 1 1 3 6 3 2 2 3 1 0 0 1 0 1 3 3 3 4 4 4 4 3 3 2 3 4 3 3 2 2 2 3 2 1 1 1 1 1 2 2 2 2 2
1 1 2 5 3 1 2 3 3 3 2 2 2 3 3 3 3 3 3 4 4 3 3 3 3 3 3 3 2 2 2 2 2 2 1 1 1 2 2 2 2 2 2 2
1 1 1 2 1 1 2 3 3 2 2 2 2 2 2 3 3 3 3 3 3 3 3 3 3 3 3 2 2 2 2 2 2 2 2 2 1 2 2 2 2 2 1 2
1 1 1 3 3 3 3 3 2 1 1 1 1 1 2 2 2 2 3 3 3 3 3 3 3 3 2 1 1 2 2 1 1 1 2 2 2 2 1 2 2 2 2 2
2 2 2 3 4 4 3 3 3 2 2 1 2 2 2 2 2 2 2 2 2 2 2 2 2 2 2 2 2 2 1 1 2 1 1 2 2 2 2 2 2 2 2 2
3 2 1 2 4 4 3 2 2 2 2 2 2 2 2 2 1 2 2 2 2 2 2 2 2 2 2 2 2 1 1 1 1 1 1 2 2 2 3 3 4 4 4 4
3 3 2 2 3 4 3 3 2 2 1 1 1 2 2 1 1 1 1 2 2 1 1 1 1 1 2 2 2 1 1 1 1 2 2 2 2 2 3 3 4 4 5 5
1 2 2 2 2 3 3 3 3 2 2 2 2 2 2 2 1 1 1 1 1 1 1 1 1 1 2 1 1 1 1 2 2 2 2 2 2 2 2 2 3 3 4 4
3 2 2 1 2 2 2 2 3 2 2 2 2 2 2 2 1 1 1 1 1 1 1 1 1 2 2 2 1 1 1 1 1 1 2 2 2 2 2 2 3 3 3 3
2 1 0 1 1 2 2 2 2 2 2 2 2 2 1 1 1 1 1 1 1 0 1 1 1 2 2 1 1 1 1 3 3 1 1 1 2 2 2 2 2 3 3 3
1 1 1 2 2 2 1 1 1 1 2 1 1 1 1 1 1 1 1 1 1 1 1 1 2 2 2 1 1 1 1 2 3 2 1 1 2 2 2 2 2 3 3 4
2 2 2 2 2 1 1 1 1 1 1 1 1 1 1 1 1 1 1 1 1 2 2 2 2 2 2 2 1 1 1 1 1 1 1 1 2 2 2 2 2 3 3 4
1 1 1 1 1 1 1 1 1 1 1 1 0 0 0 1 1 1 2 1 1 2 2 2 3 2 2 3 3 1 1 1 1 1 1 3 3 2 2 2 2 2 3 3
1 1 1 1 1 1 1 1 1 1 1 0 0 1 1 1 1 1 1 2 2 2 2 3 2 2 2 3 3 1 1 1 2 2 1 1 2 2 2 2 2 3 3 3
1 1 1 1 1 1 1 1 1 1 1 1 1 1 2 2 1 1 1 2 3 2 2 4 2 2 2 3 3 1 1 2 2 2 2 2 2 2 2 3 3 3 3 3
2 1 1 1 1 1 1 0 1 1 1 1 1 2 2 2 2 2 2 3 3 3 2 2 2 3 3 4 2 1 2 2 2 2 2 2 2 2 3 3 3 3 3 4
2 2 2 1 1 1 1 1 1 1 1 2 2 2 2 2 2 2 2 2 1 3 2 2 3 5 5 3 1 1 2 2 2 2 2 2 2 3 3 3 3 3 3 3
2 1 1 1 1 1 1 1 1 1 2 2 2 3 2 2 2 2 2 3 4 5 2 3 5 5 5 2 1 2 2 2 2 2 2 2 2 2 3 3 3 3 3 4
2 2 2 2 2 2 2 2 1 1 2 2 2 2 2 2 2 2 2 2 4 4 2 4 5 5 3 2 2 2 2 2 3 2 2 2 2 3 3 3 3 3 4 4
3 3 3 3 3 2 2 2 2 1 1 1 1 1 1 1 2 2 2 2 3 4 3 2 3 3 2 2 2 2 2 3 4 3 3 3 3 3 3 3 4 4 4 4
3 2 2 2 2 2 2 2 2 2 2 1 2 1 1 1 1 1 2 2 2 2 2 2 2 2 2 2 2 2 3 3 3 3 3 2 2 3 3 4 3 3 3 4
Wind_Direction
300 257 177 212 217 215 212 222 229 223 212 210 185 153 139 132 123 115 108 101 100 98 90 79 71 72 78 76 76 89 95 94 86 83 89 97 104 107 107 112 126 129 146 217
300 230 180 217 232 225 224 228 215 212 263 202 113 114 114 115 121 119 116 112 104 102 97 90 85 81 80 77 74 85 94 94 89 84 84 94 112 119 119 122 118 113 159 224
242 187 103 239 243 231 211 209 200 225 226 165 143 142 136 120 116 127 123 110 104 107 106 102 97 95 93 90 81 82 89 87 85 84 78 74 89 108 125 146 148 157 218 251
243 84 210 238 5 255 204 227 268 177 163 135 125 105 86 98 115 117 119 109 95 96 97 92 88 90 90 88 87 84 85 83 78 80 74 65 63 68 65 107 125 185 236 264
199 206 250 332 1 2 356 299 347 149 122 79 80 75 39 55 88 89 89 97 92 88 87 82 82 84 88 83 83 81 77 77 76 83 86 83 63 23 349 340 297 269 245 261
222 209 224 336 348 335 329 266 356 60 138 159 113 157 219 62 63 69 69 76 84 86 81 77 73 85 90 87 80 72 64 57 57 72 71 57 21 357 338 317 290 286 277 278
245 218 271 331 323 337 168 250 333 353 155 215 314 189 130 85 71 64 66 78 83 84 84 79 72 84 87 79 71 60 56 59 54 46 39 22 11 355 334 321 315 297 282 284
303 204 260 348 18 44 280 334 6 24 41 45 64 81 89 84 76 69 69 75 77 83 81 76 78 88 83 63 43 46 52 58 53 34 10 14 18 349 329 318 308 294 287 292
200 211 309 31 35 342 348 347 352 13 42 69 76 85 85 79 78 74 73 75 76 81 74 64 64 79 84 55 44 44 50 53 41 24 11 357 342 325 325 317 302 295 290 289
247 299 346 15 21 17 8 351 4 38 62 79 91 88 89 83 77 70 69 74 78 80 76 59 52 60 70 53 50 55 49 39 33 23 3 353 342 331 325 316 303 301 294 285
253 276 321 351 355 352 2 23 37 41 53 88 110 109 99 83 74 71 61 60 72 86 85 65 58 55 44 29 48 53 37 24 8 358 345 343 342 337 332 315 301 300 295 287
266 310 293 308 339 358 3 13 21 36 35 58 96 113 99 90 82 81 75 69 70 73 77 68 59 50 33 21 33 52 29 11 1 346 340 338 335 342 345 324 339 336 323 308
265 311 305 317 358 8 13 12 20 35 56 70 77 107 105 94 78 74 70 71 72 64 54 58 54 33 18 14 21 30 354 325 321 323 321 321 324 328 331 338 339 334 329 323
300 309 302 321 333 357 17 24 34 44 48 56 75 87 98 96 85 73 73 73 69 58 47 42 37 4 360 11 14 350 321 314 311 299 298 304 310 312 315 318 323 324 329 324
331 314 257 296 341 11 25 44 47 38 41 43 60 73 82 87 81 57 50 65 67 56 38 29 5 341 351 354 346 322 308 297 298 296 302 305 307 310 310 306 305 311 319 325
313 309 297 358 357 14 22 31 39 16 20 28 40 51 67 77 59 44 35 47 68 11 356 356 327 318 326 327 326 318 303 295 297 292 299 314 311 305 304 305 308 309 310 315
257 282 312 322 327 342 353 353 346 341 0 1 356 14 41 59 44 24 10 13 9 329 314 299 297 311 320 311 294 286 289 302 307 315 314 303 299 298 300 303 301 300 301 306
231 240 239 249 267 297 318 332 326 323 316 316 356 25 46 48 341 325 325 343 349 328 314 301 297 300 304 309 297 277 274 274 283 287 295 299 302 299 299 298 301 305 309 312
254 265 276 275 264 254 267 281 298 302 313 345 39 3 310 294 293 300 312 316 305 304 315 320 324 335 324 312 312 282 265 277 292 297 294 294 304 307 303 301 301 304 308 312
260 282 294 297 289 251 260 276 292 303 313 320 275 288 288 291 295 300 303 292 280 278 293 307 318 313 305 304 310 294 262 260 264 273 282 283 288 296 298 299 297 295 299 301
241 254 268 269 286 289 265 261 255 274 302 288 241 251 267 281 289 290 282 287 295 294 298 301 304 292 295 293 298 286 262 261 264 266 271 277 284 291 294 294 293 293 295 297
220 223 236 235 255 294 300 277 238 242 252 244 250 257 261 267 268 271 261 258 281 300 310 288 283 284 289 295 288 280 271 267 270 272 271 271 274 279 283 286 288 290 292 295
208 205 208 213 220 249 283 273 246 234 232 236 245 253 258 266 267 262 282 282 282 294 301 282 289 296 301 310 293 281 279 272 270 269 268 267 268 271 276 283 287 290 290 292
197 199 202 191 173 191 251 268 248 234 229 238 242 244 249 264 276 259 256 289 299 301 295 295 302 305 311 316 296 283 280 276 271 269 270 272 273 276 278 280 284 287 289 291
194 193 191 185 198 221 231 235 232 235 237 246 247 245 244 235 242 270 274 276 291 301 301 303 308 312 315 298 288 282 280 273 269 270 267 274 280 284 285 285 284 285 286 288
198 201 205 209 211 215 216 212 225 241 246 263 272 259 255 250 249 260 267 267 273 291 293 288 291 297 291 280 276 278 277 284 288 286 281 279 279 281 283 284 284 284 285 288
199 203 201 209 220 216 211 209 219 239 245 250 269 275 273 276 272 271 273 276 279 279 280 281 280 276 278 278 279 281 281 279 276 274 276 275 275 277 279 284 288 292 294 296
Height
1453 1449 1451 1454 1456 1456 1458 1458 1460 1459 1462 1462 1464 1465 1466 1468 1469 1471 1472 1473 1474 1475 1476 1478 1479 1480 1481 1482 1484 1485 1487 1489 1491 1493 1495 1496 1497 1499 1500 1501 1502 1502 1502 1503
1455 1450 1450 1454 1454 1454 1455 1456 1459 1461 1463 1462 1463 1465 1467 1468 1469 1471 1472 1473 1474 1475 1476 1477 1478 1479 1480 1481 1482 1484 1485 1487 1489 1491 1492 1493 1495 1496 1497 1498 1498 1499 1499 1499
1458 1453 1453 1460 1459 1457 1456 1456 1458 1461 1463 1463 1464 1466 1467 1468 1469 1470 1472 1473 1474 1474 1475 1476 1477 1478 1479 1480 1481 1483 1484 1485 1487 1488 1490 1491 1492 1493 1493 1494 1495 1495 1495 1495
1461 1460 1466 1465 1457 1455 1456 1457 1458 1459 1461 1463 1464 1466 1467 1469 1469 1470 1471 1472 1473 1474 1474 1475 1476 1477 1478 1479 1481 1482 1483 1484 1485 1486 1487 1488 1489 1489 1490 1491 1491 1491 1491 1492
1464 1464 1463 1462 1460 1460 1460 1461 1461 1461 1462 1463 1464 1465 1467 1469 1469 1470 1470 1471 1472 1473 1473 1474 1475 1476 1477 1478 1480 1481 1482 1483 1484 1485 1485 1486 1486 1487 1487 1488 1488 1488 1488 1488
1463 1464 1465 1467 1463 1462 1463 1465 1463 1461 1462 1463 1464 1467 1468 1468 1468 1469 1469 1470 1471 1471 1472 1473 1474 1475 1476 1477 1478 1479 1480 1481 1482 1483 1483 1484 1484 1484 1484 1484 1484 1484 1484 1484
1466 1468 1469 1469 1464 1462 1468 1469 1464 1463 1463 1463 1463 1465 1467 1466 1467 1467 1468 1469 1470 1470 1471 1472 1473 1474 1474 1475 1476 1478 1479 1479 1480 1481 1481 1481 1481 1481 1481 1481 1481 1481 1480 1481
1469 1471 1475 1469 1466 1469 1469 1465 1464 1463 1463 1463 1463 1464 1464 1465 1466 1467 1467 1468 1469 1469 1470 1471 1472 1473 1473 1474 1475 1476 1477 1477 1478 1478 1478 1478 1478 1478 1478 1478 1477 1477 1477 1477
1475 1475 1471 1469 1468 1467 1466 1465 1464 1463 1463 1463 1463 1463 1464 1465 1466 1466 1467 1468 1468 1469 1469 1470 1471 1471 1472 1473 1474 1474 1475 1475 1475 1476 1476 1476 1476 1475 1475 1475 1474 1473 1473 1473
1472 1470 1469 1468 1467 1466 1465 1464 1464 1463 1463 1463 1463 1464 1464 1465 1465 1466 1467 1467 1467 1468 1468 1469 1470 1470 1471 1471 1472 1472 1473 1473 1473 1473 1473 1473 1473 1473 1472 1472 1471 1471 1471 1470
1471 1470 1468 1467 1467 1466 1464 1464 1463 1463 1463 1463 1463 1463 1464 1464 1465 1465 1466 1466 1467 1467 1467 1467 1468 1469 1469 1470 1470 1470 1470 1471 1471 1471 1471 1471 1471 1470 1470 1469 1469 1469 1468 1468
1470 1469 1469 1468 1466 1465 1464 1463 1463 1462 1462 1462 1463 1463 1463 1464 1464 1465 1465 1465 1466 1466 1466 1466 1467 1467 1468 1468 1468 1468 1468 1469 1469 1469 1469 1468 1468 1468 1467 1468 1467 1466 1466 1465
1468 1467 1467 1466 1465 1464 1463 1462 1462 1462 1461 1461 1462 1462 1462 1463 1463 1464 1464 1464 1464 1464 1465 1465 1465 1466 1466 1467 1467 1467 1467 1467 1467 1467 1466 1466 1466 1465 1465 1465 1465 1464 1463 1463
1466 1466 1465 1464 1464 1463 1462 1462 1461 1461 1461 1461 1461 1461 1462 1462 1462 1462 1463 1463 1463 1463 1463 1464 1464 1464 1465 1465 1465 1465 1465 1464 1464 1464 1464 1464 1464 1463 1463 1462 1461 1461 1461 1460
1464 1464 1463 1463 1462 1462 1461 1461 1461 1460 1460 1460 1461 1461 1461 1461 1461 1461 1462 1462 1462 1462 1462 1462 1462 1463 1463 1463 1463 1463 1462 1462 1462 1462 1462 1462 1461 1461 1461 1460 1459 1458 1458 1458
1462 1462 1461 1461 1460 1460 1460 1460 1459 1459 1460 1460 1460 1460 1460 1460 1460 1460 1460 1460 1460 1460 1460 1461 1461 1461 1461 1461 1461 1461 1461 1460 1460 1460 1460 1460 1459 1459 1458 1457 1457 1456 1455 1455
1460 1459 1459 1459 1459 1459 1459 1459 1459 1459 1459 1459 1459 1459 1459 1459 1459 1459 1459 1459 1459 1459 1459 1459 1459 1459 1459 1459 1459 1458 1458 1458 1458 1458 1458 1457 1457 1456 1456 1455 1454 1454 1453 1453
1458 1458 1458 1458 1457 1457 1457 1458 1458 1458 1457 1457 1457 1457 1457 1457 1457 1457 1457 1457 1457 1457 1457 1457 1457 1456 1456 1456 1456 1456 1456 1456 1456 1456 1455 1455 1454 1454 1453 1453 1452 1451 1450 1450
1455 1455 1455 1455 1456 1456 1455 1456 1456 1456 1456 1456 1456 1456 1456 1455 1455 1455 1455 1455 1454 1454 1454 1455 1454 1454 1454 1454 1454 1454 1454 1454 1453 1453 1453 1452 1452 1451 1451 1450 1449 1448 1448 1447
1454 1454 1453 1453 1453 1453 1453 1453 1454 1454 1454 1454 1454 1454 1453 1453 1453 1453 1453 1452 1452 1452 1452 1452 1452 1451 1451 1451 1451 1451 1451 1451 1451 1451 1450 1450 1449 1448 1448 1447 1447 1446 1445 1445
1451 1451 1451 1451 1451 1451 1451 1451 1451 1451 1452 1452 1452 1451 1451 1451 1451 1451 1450 1449 1450 1450 1449 1449 1449 1449 1448 1449 1449 1449 1449 1449 1448 1448 1448 1447 1446 1446 1445 1445 1444 1444 1443 1442
1449 1449 1449 1449 1449 1449 1449 1449 1449 1449 1450 1450 1449 1449 1449 1449 1449 1448 1448 1448 1447 1447 1447 1446 1446 1446 1446 1446 1446 1446 1446 1446 1446 1445 1445 1444 1444 1443 1443 1442 1442 1441 1440 1440
1447 1447 1447 1447 1447 1447 1447 1447 1447 1447 1447 1447 1447 1447 1447 1446 1446 1446 1445 1445 1445 1445 1444 1444 1444 1443 1443 1443 1443 1443 1443 1443 1443 1443 1442 1442 1441 1441 1440 1440 1439 1438 1438 1437
1444 1445 1445 1445 1445 1445 1445 1445 1445 1445 1445 1445 1445 1445 1445 1444 1444 1444 1443 1443 1443 1442 1442 1441 1441 1441 1441 1440 1440 1440 1440 1440 1440 1440 1440 1439 1439 1438 1437 1437 1436 1436 1435 1434
1442 1442 1442 1442 1442 1442 1443 1443 1443 1443 1443 1443 1443 1443 1442 1442 1442 1441 1441 1441 1440 1440 1439 1439 1438 1438 1438 1438 1438 1437 1437 1437 1437 1437 1437 1436 1436 1435 1434 1434 1433 1433 1432 1431
1439 1439 1439 1440 1440 1440 1440 1441 1440 1440 1441 1440 1440 1440 1440 1440 1440 1439 1439 1438 1438 1437 1437 1436 1436 1436 1435 1435 1435 1435 1435 1435 1434 1434 1434 1433 1433 1432 1432 1431 1431 1430 1429 1428
1436 1436 1436 1437 1437 1438 1438 1438 1438 1438 1438 1438 1438 1438 1438 1438 1437 1437 1436 1436 1435 1435 1434 1434 1434 1433 1433 1433 1432 1432 1432 1432 1432 1431 1431 1431 1430 1430 1429 1429 1428 1427 1427 1426